| time (UTC) | temp C | wind direction | speed KPH | gust KPH | rain 1hr cm | rain 24hr cm | rain mn cm | humidity % | barometer mb |
| 20260510120008 | 12 | 0.0 | 0.0 | 0.00 | 0.00 | 0.00 | 99 | 1011.8 | |
| 20260510114952 | 11 | 203 | 0.0 | 3.2 | 0.00 | 0.00 | 0.00 | 99 | 1011.8 |
| 20260510113939 | 11 | 0.0 | 0.0 | 0.00 | 0.00 | 0.00 | 99 | 1011.8 | |
| 20260510112926 | 11 | 0.0 | 0.0 | 0.00 | 0.00 | 0.00 | 99 | 1011.5 | |
| 20260510111911 | 11 | 0.0 | 0.0 | 0.00 | 0.00 | 0.00 | 99 | 1011.6 | |
| 20260510110859 | 11 | 0.0 | 0.0 | 0.00 | 0.00 | 0.00 | 99 | 1011.4 | |
| 20260510105904 | 10 | 0.0 | 0.0 | 0.00 | 0.00 | 0.00 | 99 | 1011.7 | |
| 20260510104830 | 10 | 215 | 1.6 | 3.2 | 0.00 | 0.00 | 0.00 | 99 | 1011.5 |
| 20260510103816 | 10 | 0.0 | 0.0 | 0.00 | 0.00 | 0.00 | 99 | 1011.1 | |
| 20260510102803 | 10 | 0.0 | 0.0 | 0.00 | 0.00 | 0.00 | 99 | 1011.1 | |
| 20260510101749 | 10 | 0.0 | 1.6 | 0.00 | 0.00 | 0.00 | 99 | 1011.0 | |
| 20260510100736 | 10 | 243 | 4.8 | 4.8 | 0.00 | 0.00 | 0.00 | 99 | 1011.3 |
| 20260510095722 | 10 | 0.0 | 0.0 | 0.00 | 0.00 | 0.00 | 99 | 1011.0 | |
| 20260510094708 | 10 | 0.0 | 0.0 | 0.00 | 0.00 | 0.00 | 99 | 1011.0 | |
| 20260510093655 | 10 | 0.0 | 0.0 | 0.00 | 0.00 | 0.00 | 99 | 1010.8 | |
| 20260510092641 | 10 | 0.0 | 0.0 | 0.00 | 0.00 | 0.00 | 98 | 1010.8 | |
| 20260510091627 | 10 | 0.0 | 0.0 | 0.00 | 0.00 | 0.00 | 98 | 1010.8 | |
| 20260510091117 | 10 | 0.0 | 0.0 | 0.00 | 0.00 | 0.00 | 98 | 1010.9 | |
| 20260510090104 | 10 | 217 | 3.2 | 6.4 | 0.00 | 0.00 | 0.00 | 98 | 1010.8 |
| 20260510085050 | 10 | 264 | 1.6 | 9.7 | 0.00 | 0.00 | 0.00 | 98 | 1011.0 |
| 20260510084036 | 10 | 213 | 1.6 | 3.2 | 0.00 | 0.00 | 0.00 | 98 | 1011.0 |
| 20260510083022 | 9 | 299 | 9.7 | 11.3 | 0.00 | 0.00 | 0.00 | 98 | 1010.9 |
| 20260510082008 | 9 | 304 | 6.4 | 12.9 | 0.00 | 0.00 | 0.00 | 98 | 1010.7 |
| 20260510081035 | 9 | 0.0 | 0.0 | 0.00 | 0.00 | 0.00 | 97 | 1010.3 | |
| 20260510080001 | 9 | 0.0 | 0.0 | 0.00 | 0.00 | 0.00 | 97 | 1010.2 | |
| 20260510074948 | 9 | 0.0 | 0.0 | 0.00 | 0.00 | 0.00 | 97 | 1010.5 | |
| 20260510073914 | 9 | 0.0 | 0.0 | 0.00 | 0.00 | 0.00 | 97 | 1010.1 | |
| 20260510072900 | 9 | 260 | 8.0 | 9.7 | 0.00 | 0.00 | 0.00 | 97 | 1010.3 |
| 20260510071846 | 10 | 184 | 1.6 | 6.4 | 0.00 | 0.00 | 0.00 | 96 | 1010.1 |
| 20260510070833 | 10 | 0.0 | 0.0 | 0.00 | 0.00 | 0.00 | 95 | 1010.0 | |
| 20260510065817 | 9 | 0.0 | 0.0 | 0.00 | 0.00 | 0.00 | 94 | 1010.0 | |
| 20260510064802 | 10 | 0.0 | 0.0 | 0.00 | 0.00 | 0.00 | 93 | 1009.7 | |
| 20260510063749 | 10 | 0.0 | 0.0 | 0.00 | 0.00 | 0.00 | 94 | 1009.7 | |
| 20260510062734 | 10 | 0.0 | 0.0 | 0.00 | 0.00 | 0.00 | 93 | 1009.7 | |
| 20260510061719 | 10 | 0.0 | 0.0 | 0.00 | 0.00 | 0.00 | 93 | 1009.7 | |
| 20260510060706 | 10 | 0.0 | 0.0 | 0.00 | 0.00 | 0.00 | 94 | 1009.9 | |
| 20260510055653 | 10 | 0.0 | 0.0 | 0.00 | 0.00 | 0.00 | 93 | 1009.9 | |
| 20260510054639 | 10 | 0.0 | 0.0 | 0.00 | 0.00 | 0.00 | 94 | 1010.2 | |
| 20260510053625 | 10 | 0.0 | 0.0 | 0.00 | 0.00 | 0.00 | 93 | 1010.0 | |
| 20260510052613 | 11 | 0.0 | 0.0 | 0.00 | 0.00 | 0.00 | 92 | 1010.1 | |
| 20260510051558 | 11 | 0.0 | 0.0 | 0.00 | 0.00 | 0.00 | 92 | 1010.4 | |
| 20260510050544 | 10 | 0.0 | 0.0 | 0.00 | 0.00 | 0.00 | 93 | 1010.4 | |
| 20260510045532 | 11 | 0.0 | 0.0 | 0.00 | 0.00 | 0.00 | 92 | 1010.3 | |
| 20260510044517 | 11 | 0.0 | 0.0 | 0.00 | 0.00 | 0.00 | 92 | 1010.3 | |
| 20260510043504 | 11 | 0.0 | 0.0 | 0.00 | 0.00 | 0.00 | 92 | 1010.6 | |
| 20260510042510 | 11 | 0.0 | 0.0 | 0.00 | 0.00 | 0.00 | 93 | 1010.3 | |
| 20260510041436 | 11 | 0.0 | 0.0 | 0.00 | 0.00 | 0.00 | 94 | 1010.4 | |
| 20260510040423 | 10 | 0.0 | 0.0 | 0.00 | 0.00 | 0.00 | 95 | 1010.7 | |
| 20260510035409 | 10 | 0.0 | 0.0 | 0.00 | 0.00 | 0.00 | 95 | 1010.5 | |
| 20260510034416 | 10 | 0.0 | 0.0 | 0.00 | 0.00 | 0.00 | 94 | 1010.2 | |
| 20260510033342 | 10 | 0.0 | 0.0 | 0.00 | 0.00 | 0.00 | 93 | 1010.1 | |
| 20260510032328 | 11 | 0.0 | 0.0 | 0.00 | 0.00 | 0.00 | 92 | 1010.2 | |
| 20260510031314 | 11 | 0.0 | 0.0 | 0.00 | 0.00 | 0.00 | 93 | 1010.1 | |
| 20260510030302 | 11 | 0.0 | 0.0 | 0.00 | 0.00 | 0.00 | 93 | 1010.1 | |
| 20260510025307 | 11 | 0.0 | 0.0 | 0.00 | 0.00 | 0.00 | 93 | 1010.0 | |
| 20260510024233 | 12 | 0.0 | 0.0 | 0.00 | 0.00 | 0.00 | 93 | 1010.1 | |
| 20260510023240 | 11 | 0.0 | 0.0 | 0.00 | 0.00 | 0.00 | 93 | 1010.2 | |
| 20260510022206 | 11 | 0.0 | 0.0 | 0.00 | 0.00 | 0.00 | 93 | 1009.8 | |
| 20260510021153 | 11 | 0.0 | 0.0 | 0.00 | 0.00 | 0.00 | 93 | 1009.9 | |
| 20260510020140 | 12 | 0.0 | 0.0 | 0.00 | 0.00 | 0.00 | 92 | 1009.9 | |
| 20260510015126 | 12 | 0.0 | 0.0 | 0.00 | 0.00 | 0.00 | 93 | 1009.9 | |
| 20260510014153 | 12 | 0.0 | 0.0 | 0.00 | 0.00 | 0.00 | 93 | 1009.7 | |
| 20260510013059 | 12 | 0.0 | 0.0 | 0.00 | 0.00 | 0.00 | 92 | 1009.9 | |
| 20260510012046 | 12 | 0.0 | 0.0 | 0.00 | 0.00 | 0.00 | 92 | 1009.8 | |
| 20260510011052 | 12 | 0.0 | 0.0 | 0.00 | 0.00 | 0.00 | 93 | 1009.6 | |
| 20260510010019 | 12 | 0.0 | 0.0 | 0.00 | 0.00 | 0.00 | 92 | 1009.6 | |
| 20260510005025 | 12 | 0.0 | 0.0 | 0.00 | 0.00 | 0.00 | 92 | 1009.4 | |
| 20260510003951 | 13 | 0.0 | 0.0 | 0.00 | 0.00 | 0.00 | 93 | 1009.5 | |
| 20260510002938 | 13 | 0.0 | 0.0 | 0.00 | 0.00 | 0.00 | 91 | 1009.3 | |
| 20260510001924 | 13 | 0.0 | 0.0 | 0.00 | 0.00 | 0.00 | 90 | 1009.3 | |
| 20260510000911 | 13 | 0.0 | 0.0 | 0.00 | 0.00 | 0.00 | 90 | 1009.3 | |
| 20260509235857 | 13 | 0.0 | 0.0 | 0.00 | 0.00 | 0.00 | 91 | 1009.4 | |
| 20260509234844 | 14 | 0.0 | 0.0 | 0.00 | 0.00 | 0.00 | 89 | 1009.3 | |
| 20260509233830 | 14 | 0.0 | 0.0 | 0.00 | 0.00 | 0.00 | 88 | 1009.3 | |
| 20260509232817 | 13 | 0.0 | 0.0 | 0.00 | 0.00 | 0.00 | 89 | 1009.4 | |
| 20260509231803 | 14 | 0.0 | 0.0 | 0.00 | 0.00 | 0.00 | 86 | 1009.3 | |
| 20260509230750 | 15 | 0.0 | 0.0 | 0.00 | 0.00 | 0.00 | 87 | 1009.1 | |
| 20260509225736 | 15 | 184 | 3.2 | 6.4 | 0.00 | 0.00 | 0.00 | 86 | 1009.3 |
| 20260509224722 | 15 | 0.0 | 0.0 | 0.00 | 0.00 | 0.00 | 88 | 1009.4 | |
| 20260509223709 | 14 | 0.0 | 0.0 | 0.00 | 0.00 | 0.00 | 92 | 1009.3 | |
| 20260509222655 | 13 | 179 | 3.2 | 4.8 | 0.00 | 0.00 | 0.00 | 92 | 1009.4 |
| 20260509221642 | 13 | 0.0 | 3.2 | 0.00 | 0.00 | 0.00 | 92 | 1009.3 | |
| 20260509220628 | 13 | 0.0 | 1.6 | 0.00 | 0.00 | 0.00 | 92 | 1009.6 | |
| 20260509220118 | 13 | 0.0 | 6.4 | 0.00 | 0.00 | 0.00 | 92 | 1009.4 | |
| 20260509215104 | 13 | 160 | 1.6 | 3.2 | 0.00 | 0.00 | 0.00 | 92 | 1009.2 |
| 20260509214111 | 13 | 193 | 0.0 | 3.2 | 0.00 | 0.00 | 0.00 | 93 | 1009.4 |
| 20260509213037 | 13 | 0.0 | 1.6 | 0.00 | 0.00 | 0.00 | 93 | 1009.5 | |
| 20260509212023 | 13 | 0.0 | 3.2 | 0.00 | 0.00 | 0.00 | 93 | 1009.6 | |
| 20260509211010 | 13 | 0.0 | 0.0 | 0.00 | 0.00 | 0.00 | 92 | 1009.4 | |
| 20260509205956 | 13 | 0.0 | 0.0 | 0.00 | 0.00 | 0.00 | 93 | 1009.7 | |
| 20260509204942 | 12 | 0.0 | 3.2 | 0.00 | 0.00 | 0.00 | 94 | 1009.4 | |
| 20260509203929 | 12 | 237 | 3.2 | 4.8 | 0.00 | 0.00 | 0.00 | 93 | 1009.4 |
| 20260509202915 | 12 | 0.0 | 0.0 | 0.00 | 0.00 | 0.00 | 93 | 1009.2 | |
| 20260509201902 | 12 | 0.0 | 4.8 | 0.00 | 0.00 | 0.00 | 94 | 1009.1 | |
| 20260509200849 | 12 | 268 | 4.8 | 6.4 | 0.00 | 0.00 | 0.00 | 94 | 1009.5 |
| 20260509195835 | 12 | 186 | 1.6 | 9.7 | 0.00 | 0.00 | 0.00 | 95 | 1009.3 |
| 20260509194821 | 12 | 257 | 6.4 | 6.4 | 0.00 | 0.00 | 0.00 | 94 | 1009.6 |
| 20260509193808 | 12 | 34 | 6.4 | 11.3 | 0.00 | 0.00 | 0.00 | 94 | 1009.8 |
| 20260509192754 | 12 | 92 | 0.0 | 4.8 | 0.00 | 0.00 | 0.00 | 94 | 1010.1 |
| 20260509191740 | 12 | 184 | 0.0 | 4.8 | 0.00 | 0.00 | 0.00 | 94 | 1010.3 |
| 20260509190726 | 12 | 253 | 6.4 | 9.7 | 0.00 | 0.00 | 0.00 | 94 | 1010.2 |
| 20260509185713 | 12 | 292 | 6.4 | 16.1 | 0.00 | 0.00 | 0.00 | 94 | 1010.5 |
| 20260509184720 | 12 | 328 | 8.0 | 14.5 | 0.00 | 0.00 | 0.00 | 94 | 1010.4 |
| 20260509183646 | 12 | 246 | 4.8 | 9.7 | 0.00 | 0.00 | 0.00 | 94 | 1010.4 |
| 20260509182632 | 12 | 249 | 4.8 | 9.7 | 0.00 | 0.00 | 0.00 | 93 | 1010.5 |
| 20260509181619 | 12 | 192 | 6.4 | 9.7 | 0.00 | 0.00 | 0.00 | 92 | 1010.6 |
| 20260509180606 | 12 | 249 | 3.2 | 4.8 | 0.00 | 0.00 | 0.00 | 90 | 1010.8 |
| 20260509175552 | 12 | 302 | 6.4 | 6.4 | 0.00 | 0.00 | 0.00 | 88 | 1011.0 |
| 20260509174558 | 13 | 313 | 9.7 | 12.9 | 0.00 | 0.00 | 0.00 | 83 | 1010.9 |
| 20260509173524 | 14 | 208 | 4.8 | 6.4 | 0.00 | 0.00 | 0.00 | 79 | 1010.8 |
| 20260509172511 | 14 | 228 | 4.8 | 6.4 | 0.00 | 0.00 | 0.00 | 79 | 1010.7 |
| 20260509171558 | 13 | 221 | 4.8 | 6.4 | 0.00 | 0.00 | 0.00 | 83 | 1010.5 |
| 20260509170444 | 13 | 175 | 1.6 | 9.7 | 0.00 | 0.00 | 0.00 | 84 | 1010.6 |
| 20260509165430 | 14 | 352 | 12.9 | 14.5 | 0.00 | 0.00 | 0.00 | 87 | 1010.6 |
| 20260509164417 | 14 | 215 | 4.8 | 9.7 | 0.00 | 0.00 | 0.00 | 86 | 1010.6 |
| 20260509163423 | 13 | 261 | 3.2 | 9.7 | 0.00 | 0.00 | 0.00 | 86 | 1010.6 |
| 20260509162349 | 14 | 207 | 3.2 | 4.8 | 0.00 | 0.00 | 0.00 | 87 | 1010.7 |
| 20260509161335 | 14 | 221 | 4.8 | 11.3 | 0.00 | 0.00 | 0.00 | 83 | 1011.1 |
| 20260509160322 | 15 | 318 | 9.7 | 12.9 | 0.00 | 0.00 | 0.00 | 81 | 1011.3 |
| 20260509155310 | 15 | 231 | 4.8 | 11.3 | 0.00 | 0.00 | 0.00 | 78 | 1011.4 |
| 20260509154256 | 16 | 214 | 1.6 | 4.8 | 0.00 | 0.00 | 0.00 | 75 | 1011.4 |
| 20260509153241 | 16 | 194 | 3.2 | 12.9 | 0.00 | 0.00 | 0.00 | 74 | 1011.3 |
| 20260509152228 | 16 | 227 | 6.4 | 11.3 | 0.00 | 0.00 | 0.00 | 72 | 1011.6 |
| 20260509151214 | 16 | 231 | 4.8 | 14.5 | 0.00 | 0.00 | 0.00 | 71 | 1011.4 |
| 20260509150202 | 16 | 204 | 1.6 | 9.7 | 0.00 | 0.00 | 0.00 | 72 | 1011.4 |
| 20260509145146 | 16 | 205 | 6.4 | 6.4 | 0.00 | 0.00 | 0.00 | 72 | 1011.3 |
| 20260509144133 | 16 | 223 | 8.0 | 14.5 | 0.00 | 0.00 | 0.00 | 71 | 1011.2 |
| 20260509143626 | 16 | 260 | 9.7 | 14.5 | 0.00 | 0.00 | 0.00 | 71 | 1011.1 |
| 20260509142613 | 15 | 241 | 3.2 | 16.1 | 0.00 | 0.00 | 0.00 | 72 | 1011.1 |
| 20260509141559 | 16 | 222 | 3.2 | 11.3 | 0.00 | 0.00 | 0.00 | 72 | 1010.9 |
| 20260509140545 | 16 | 206 | 4.8 | 9.7 | 0.00 | 0.00 | 0.00 | 73 | 1010.8 |
| 20260509135531 | 15 | 194 | 0.0 | 9.7 | 0.00 | 0.00 | 0.00 | 75 | 1010.9 |
| 20260509134518 | 15 | 196 | 11.3 | 16.1 | 0.00 | 0.00 | 0.00 | 76 | 1011.0 |
| 20260509133505 | 15 | 150 | 3.2 | 9.7 | 0.00 | 0.00 | 0.00 | 78 | 1010.8 |
| 20260509132451 | 15 | 206 | 4.8 | 11.3 | 0.00 | 0.00 | 0.00 | 78 | 1010.7 |
| 20260509131438 | 15 | 202 | 6.4 | 9.7 | 0.00 | 0.00 | 0.00 | 79 | 1011.0 |
| 20260509130425 | 15 | 175 | 4.8 | 11.3 | 0.00 | 0.00 | 0.00 | 80 | 1010.9 |
| 20260509125411 | 14 | 201 | 4.8 | 9.7 | 0.00 | 0.00 | 0.00 | 81 | 1011.1 |
| 20260509124357 | 14 | 172 | 1.6 | 9.7 | 0.00 | 0.00 | 0.00 | 81 | 1011.1 |
| 20260509123342 | 13 | 165 | 4.8 | 6.4 | 0.00 | 0.00 | 0.00 | 81 | 1011.0 |
| 20260509122350 | 13 | 193 | 0.0 | 11.3 | 0.00 | 0.00 | 0.00 | 83 | 1011.1 |
| 20260509121315 | 13 | 163 | 4.8 | 9.7 | 0.00 | 0.00 | 0.00 | 83 | 1010.9 |
| 20260509120301 | 12 | 200 | 0.0 | 4.8 | 0.00 | 0.00 | 0.00 | 83 | 1011.0 |